This is the latest recevied weather packets stored in our database for station/object DB0TV-13. If no packets are shown the sender has not sent any weather packets the latest 10 day(s).
| Time | Temp. | Humidity | Pressure | Rain* | Wind** | Luminosity | Snow |
|---|---|---|---|---|---|---|---|
| 1777461019 | 16.11° C | 38% | 1025.1 hPa | 0 mm | - | 823 W/m² | - |
| 1777460420 | 15.56° C | 37% | 1025.1 hPa | 0 mm | - | 821 W/m² | - |
| 1777459820 | 15.56° C | 38% | 1025.1 hPa | 0 mm | - | 817 W/m² | - |
| 1777459220 | 15° C | 39% | 1025 hPa | 0 mm | - | 808 W/m² | - |
| 1777458620 | 15.56° C | 39% | 1025.2 hPa | 0 mm | - | 799 W/m² | - |
| 1777458020 | 15.56° C | 44% | 1025.2 hPa | 0 mm | - | 789 W/m² | - |
| 1777457420 | 15.56° C | 43% | 1025.3 hPa | 0 mm | - | 782 W/m² | - |
| 1777456820 | 15.56° C | 38% | 1025.4 hPa | 0 mm | - | 774 W/m² | - |
| 1777456220 | 14.44° C | 44% | 1025.4 hPa | 0 mm | - | 763 W/m² | - |
| 1777455619 | 14.44° C | 46% | 1025.4 hPa | 0 mm | - | 745 W/m² | - |
| 1777455019 | 14.44° C | 46% | 1025.3 hPa | 0 mm | - | 726 W/m² | - |
| 1777454420 | 13.89° C | 50% | 1025.3 hPa | 0 mm | - | 706 W/m² | - |
| 1777453820 | 13.33° C | 51% | 1025.3 hPa | 0 mm | - | 695 W/m² | - |
| 1777453219 | 12.78° C | 50% | 1025.4 hPa | 0 mm | - | 679 W/m² | - |
| 1777452620 | 12.78° C | 51% | 1025.4 hPa | 0 mm | - | 659 W/m² | - |
| 1777452020 | 12.78° C | 51% | 1025.4 hPa | 0 mm | - | 640 W/m² | - |
| 1777451419 | 12.78° C | 48% | 1025.5 hPa | 0 mm | - | 617 W/m² | - |
| 1777450819 | 12.22° C | 51% | 1025.4 hPa | 0 mm | - | 594 W/m² | - |
| 1777450219 | 12.22° C | 52% | 1025.3 hPa | 0 mm | - | 572 W/m² | - |
| 1777449619 | 11.67° C | 53% | 1025.2 hPa | 0 mm | - | 549 W/m² | - |
| 1777449019 | 11.11° C | 53% | 1025.1 hPa | 0 mm | - | 524 W/m² | - |
| 1777448419 | 11.11° C | 54% | 1025.1 hPa | 0 mm | - | 498 W/m² | - |
| 1777447819 | 10.56° C | 54% | 1025 hPa | 0 mm | - | 474 W/m² | - |
| 1777447219 | 10° C | 53% | 1025 hPa | 0 mm | - | 447 W/m² | - |
| 1777446620 | 10° C | 55% | 1025 hPa | 0 mm | - | 420 W/m² | - |
* Rain latest hour (hover to see other rain measurements)
** Current wind speed in m/s (hover to see current wind gust speed)